Погода в Школьном

Россия / Костромская область     58°32′29″N   44°17′39″E
темп.,
°C
ветер,
м/с
пор.,
м/с
влажн.,
%
обл.,
%
осадки,
мм/ч
давл.,
гПа
погр.,
м
14 июня, пн
пн1400:00+14ю119611 0.5 100912
03:00+13юз11965 0.5 101012
06:00+16юз249337 0.0 1011187
09:00+22зюз356218 0.1 1012878
12:00+25зюз454198 0.0 10122524
15:00+24юз255299 0.0 1012489
18:00+21зюз256683 0.0 1012134
21:00+18зсз247677 0.0 101389
15 июня, вт
вт1500:00+14с239559 0.0 101444
03:00+13ссз2397100 0.0 101555
06:00+17с12810 0.0 1015229
09:00+22юз01580 0.0 1014919
12:00+25юз244546 0.0 10131969
15:00+23зсз2363100 0.0 101184
18:00+21ююв226985 0.0 101033
21:00+18ююз22780 0.0 101036
16 июня, ср
ср1600:00+16ююз239029 0.0 100964
03:00+14ююз259862 1.6 1009103
06:00+17зюз239389 0.3 1008164
09:00+21з347899 1.1 1008491
12:00+17сз279043 2.6 1009236
15:00+20сз675199 3.1 10101360
18:00+19ссз49535 0.0 10111589
21:00+12с11755 0.0 101310
17 июня, чт
чт1700:00+11з237587 0.0 101452
03:00+10зсз23735 0.0 101647
06:00+13зсз37635 0.0 1017290
09:00+18сз46410 0.0 10181339
12:00+20сз583415 0.0 10192419
15:00+18ссз4846100 0.0 10201175
18:00+19с384697 0.0 10202033
21:00+12ссв11715 0.0 102210
18 июня, пт
пт1800:00+10з11790 0.0 102410
03:00+9сз228164 0.0 102516
06:00+13ссз23626 0.0 1026138
09:00+20ссз123791 0.0 10261047
12:00+22зюз233046 0.0 10251631
15:00+24зюз342932 0.0 10241769
18:00+22зюз2547100 0.0 1023395
21:00+17юз3770100 0.0 1023132